Regional Weather Roundup
Issued by NWS Grand Forks, ND

Home | Current Version | Previous Version | Graphics & Text | Print | Product List | Glossary On
Versions: 1 2 3 4 5 6 7 8 9 10 11 12 13 14 15 16 17 18 19 20 21 22 23 24 25 26 27 28 29 30 31 32 33 34 35 36 37 38 39 40 41 42 43 44 45 46 47 48 49 50
271
ASUS43 KFGF 250231
RWRFGF
PRAIRIE TO PINES  WEATHER ROUNDUP
NATIONAL WEATHER SERVICE EASTERN NORTH DAKOTA/GRAND FORKS ND
900 PM CDT SUN SEP 24 2017

 **SATELLITE DATA USED TO AUGMENT SKY COVER AT AUTOMATED STATIONS**
 *****  WEATHER ACROSS EASTERN NORTH DAKOTA  *****

CITY           SKY/WX    TMP DP  RH WIND       PRES   REMARKS
GRAND FORKS    CLOUDY    52  50  93 NW14      29.98R
GRAND FRKS AFB CLOUDY    50  48  93 N13       30.00R
DEVILS LAKE    CLOUDY    48  45  89 NW12      30.05R
FARGO          CLOUDY    52  51  97 NW17      29.99R
WAHPETON ARPT  CLOUDY    52  50  93 NW7       30.00R
$$

 ***** WEATHER ACROSS CENTRAL AND WESTERN NORTH DAKOTA  *****

CITY           SKY/WX    TMP DP  RH WIND       PRES   REMARKS
BISMARCK       CLOUDY    50  45  83 N8        30.09R
MINOT          CLOUDY    49  46  90 NW8       30.09R
JAMESTOWN      CLOUDY    49  46  90 NW16      30.03R
MINOT AFB      CLOUDY    48  45  91 NW8       30.07R
GARRISON         N/A     47  45  93 NW6       30.09R
WILLISTON      CLOUDY    46  44  93 CALM      30.12S
DICKINSON      CLOUDY    45  41  86 CALM      30.10R
HETTINGER      CLOUDY    45  41  86 NW7       30.13R
$$

 *****  OTHER AIRPORT OBSERVATIONS IN OUR AREA  *****

CITY           SKY/WX    TMP DP  RH WIND       PRES   REMARKS
WALHALLA       FAIR     N/A N/A N/A NW12G18   30.00R
GRAFTON AIRPOR NOT AVBL
VALLEY CITY AR NOT AVBL
CANDO          CLOUDY    48  48 100 NW8       30.07R
CAVALIER APRT  CLOUDY    50  50 100 N15       29.98R FOG
GWINNER        CLOUDY    52  50  93 NW7G13    30.02R
SHEYENNE NWR     N/A     53  52  95 NW7       29.95S
ROLLA          CLOUDY    46  46 100 NW9G16    30.05S
 ***** THE ABOVE OBSERVATIONS ARE NON NWS ARE NOT QUALITY
       CONTROLLED AND MAY MIS-REPORT RAIN FOR SNOW...
$$

  *****  WEATHER ACROSS NORTHERN MINNESOTA  *****

CITY           SKY/WX    TMP DP  RH WIND       PRES   REMARKS
FLAG ISLAND    CLOUDY    52  52 100 NW14      29.85R
WARROAD        NOT AVBL
ROSEAU         CLOUDY    52  46  82 NW8       29.92R HAZE
HALLOCK        CLOUDY    50  48  93 NW16      29.96R
THF RVR FALLS  CLOUDY    50  48  93 NW13      29.95R
BAUDETTE       CLOUDY    54  54 100 NW8       29.86R
WASKISH        CLOUDY    55  55 100 W12       29.88R
CROOKSTON      CLOUDY    50  50 100 NW12G20   29.98R
STEPHEN NDAWN    N/A     50  48  93 NW10        N/A
GREENBUSH NDAW   N/A     48  48 100 NW8         N/A
$$
  *****  WEATHER ACROSS CENTRAL AND WEST MINNESOTA  *****

CITY           SKY/WX    TMP DP  RH WIND       PRES   REMARKS
FOSSTON        CLOUDY    48  48 100 W9        29.95R FOG
BEMIDJI        CLOUDY    54  53  95 W15       29.92R
PARK RAPIDS    CLOUDY    56  53  90 W13       29.91R
ELBOW LAKE     CLOUDY    52  52  99 NW12      29.99R
WADENA         CLOUDY    54  54 100 NW9       29.94R
DETROIT LAKES  CLOUDY    52  50  93 NW13      29.97R FOG
MOORHEAD       CLOUDY    52  50  93 N8        30.00R
FERGUS FALLS   CLOUDY    52  52 100 NW13      29.99R
MORRIS MN      NOT AVBL
STAPLES        CLOUDY    57  55  94 W13       29.94R
$$
  *****  WEATHER ELSEWHERE ACROSS MINNESOTA  *****

CITY           SKY/WX    TMP DP  RH WIND       PRES   REMARKS
DULUTH         LGT RAIN  66  65  96 SW9       29.89S
INTRNTL FALLS  CLOUDY    62  60  93 W7        29.82S
ELY            LGT RAIN  66  64  94 S9G16     29.85F
CLOQUET        LGT RAIN  66  63  88 SW5       29.89R
WHEATON        CLOUDY    54  50  87 NW9       30.01R
BRAINERD       MOCLDY    65  63  93 W5        29.88R
HIBBING        MOCLDY    65  65 100 VRB5      29.86R
ALEXANDRIA     CLOUDY    56  54  93 NW15      29.96R
SAINT CLOUD    FAIR      67  66  97 W6        29.89R
MINNEAPOLIS    MOCLDY    75  66  73 NW5       29.89S
$$

  *****  WEATHER ACROSS SOUTH DAKOTA  *****

CITY           SKY/WX    TMP DP  RH WIND       PRES   REMARKS
SIOUX FALLS    CLOUDY    58  55  90 NW9       29.98S
BROOKINGS      CLOUDY    55  52  89 NW13      29.99R
WATERTOWN      CLOUDY    52  51  97 NW17      29.98R
HURON          CLOUDY    54  51  90 NW10      30.01R
SISSETON         N/A     54  51  90 NW10      29.99R
ABERDEEN       CLOUDY    52  49  89 N10       30.03R
MITCHELL       CLOUDY    56  52  86 N10       30.01R
PIERRE         CLOUDY    52  46  80 N12       30.07R
MOBRIDGE       CLOUDY    52  47  83 NW9       30.06R
RAPID CITY     CLOUDY    48  41  76 N10       30.10R
$$

  *****  SOME WEATHER IN NEARBY STATES *****

CITY           SKY/WX    TMP DP  RH WIND       PRES   REMARKS
GLASGOW MT     FAIR      47  37  68 S6        30.10S
GREAT FALLS MT FAIR      49  29  46 SE3       30.04S
CHEYENNE WY    LGT RAIN  42  41  96 NE7       30.04S VSB 1
SCOTTSBLUFF NE CLOUDY    49  45  86 NE9       30.05R
OMAHA NE       CLOUDY    70  64  81 N12       29.91R
DES MOINES IA  FAIR      80  63  55 SE7       29.91R
DAVENPORT IA   FAIR      74  64  71 SE6       29.99R
CHICAGO IL     FAIR      80  59  48 SE6       30.01S
EAU CLAIRE WI  FAIR      78  61  55 S9        29.90S
LA CROSSE WI   FAIR      82  64  54 S8        29.92S
$$

  *****  SOME NATIONAL WEATHER *****

CITY           SKY/WX    TMP DP  RH WIND       PRES   REMARKS
LA GUARDIA NY  FAIR      77  63  61 S6        30.05R
RALEIGH NC     MOCLDY    71  61  70 E6        30.03S
ATLANTA GA     FAIR      76  64  66 E8        30.02S
NEW ORLEANS LA FAIR      78  71  79 E7        29.92R
OKLAHOMA CITY  MOCLDY    77  63  61 S6        29.89R
ALBUQUERQUE NM FAIR      72  21  14 CALM      29.89R
SALT LAKE CITY MOCLDY    44  43  96 SE9       30.10F
LOS ANGELES CA FAIR      70  52  52 W12       29.84S
BOISE ID       FAIR      60  35  39 NW13      30.00S
SEATTLE WA     MOCLDY    66  49  54 W3        30.10S
$$

*** WEATHER ACROSS MANITOBA...SASKATCHEWAN AND ONTARIO ***
                ***ONTARIO***

CITY           SKY/WX    TMP DP  RH WIND       PRES   REMARKS
GERALDTON      PTCLDY    68  64  88 S7        29.85S
THUNDER BAY    PTCLDY    63  63 100 VRB2      29.83F
SIOUX LOOKOUT  LGT RAIN  63  63 100 SW3       29.75F FOG
TORONTO        CLEAR     81  66  61 SE5       30.09S
BIG TROUT LK   LGT RAIN  45  45 100 NE9G17    29.94F
PICKLE LAKE    LGT RAIN  50  50 100 NE6       29.77F VSB 1/2
DRYDEN         LGT RAIN  61  59  94 W9        29.78R FOG
KENORA         LGT RAIN  52  52 100 NW10      29.85R VSB 1
$$
                *** MANITOBA***

CITY           SKY/WX    TMP DP  RH WIND       PRES   REMARKS
BRANDON        CLOUDY    46  45  93 NW7       30.06S
DAUPHIN        CLOUDY    48  46  93 N5        30.08R
ISLAND LAKE    NOT AVBL
PILOT MOUND      N/A     46  45  93 NW10        N/A
THE PAS        PTCLDY    45  39  81 VRB2      30.12R
THOMPSON       CLOUDY    41  34  75 NE5       30.15S
WINNIPEG       CLOUDY    48  48 100 N16G22    29.97R
LYNN LAKE      CLOUDY    39  37  93 S3        30.12S
CHURCHILL      CLOUDY    39  32  75 SE6       30.19F
GILLAM         CLOUDY    41  34  75 N13       30.16S
$$
                ***SASKATCHEWAN***

CITY           SKY/WX    TMP DP  RH WIND       PRES   REMARKS
ESTEVAN        CLOUDY    46  45  93 SE3       30.11R
KINDERSLEY     PTCLDY    46  32  57 SE5       30.03R
LLOYDMINSTER   MOCLDY    52  37  58 SE8       29.98F
PRINCE ALBERT  MOCLDY    45  39  81 E6        30.09S
REGINA         CLOUDY    50  34  53 E6        30.10S
YORKTON        CLOUDY    48  39  71 CALM      30.10R
N. BATTLEFORD  PTCLDY    45  34  65 E8        30.05S
LA RONGE       CLOUDY    46  43  87 CALM      30.06S
SASKATOON      PTCLDY    48  39  71 E5        30.07R
SWIFT CURRENT    N/A     50  32  50 S8        30.05S
$$
NOTE: THESE ARE AUTOMATED STATIONS WITH LIMITED QUALITY CONTROL
      "FAIR" INDICATES FEW OR NO CLOUDS BELOW 12,000 FEET WITH NO
      SIGNIFICANT WEATHER AND/OR OBSTRUCTIONS TO VISIBILITY.
      SKY/WX - SKY CONDITION AND SIGNIFICANT WEATHER.
      TMP - AIR TEMPERATURE.    DP   - DEWPOINT TEMPERATURE.
      RH  - RELATIVE HUMIDITY.  PRES - PRESSURE.
      HX  - HEAT INDEX.         WCI  - WIND CHILL INDEX.
$




USA.gov is the U.S. government's official web portal to all federal, state and local government web resources and services.